PST,Max TemperatureF,Mean TemperatureF,Min TemperatureF,Max Dew PointF,MeanDew PointF,Min DewpointF,Max Humidity, Mean Humidity, Min Humidity, Max Sea Level PressureIn, Mean Sea Level PressureIn, Min Sea Level PressureIn, Max VisibilityMiles, Mean VisibilityMiles, Min VisibilityMiles, Max Wind SpeedMPH, Mean Wind SpeedMPH, Max Gust SpeedMPH,PrecipitationIn, CloudCover, Events, WindDirDegrees
2013-12-1,52,47,42,52,49,37,100,96,71,30.09,29.92,29.81,10,10,5,23,12,32,0.47,8,Rain,223
2013-12-2,42,38,33,36,34,32,100,85,66,30.07,29.96,29.86,10,10,8,15,9,23,0.00,6,Rain,219
2013-12-3,39,31,22,36,28,22,100,83,57,30.34,30.18,30.06,10,10,10,14,6,22,0.01,4,Rain,33
2013-12-4,36,26,17,27,21,16,99,87,56,30.38,30.34,30.30,10,10,10,4,1,,0.00,0,,168
2013-12-5,30,22,15,26,21,14,100,95,82,30.34,30.27,30.20,10,8,0,5,2,,0.00,4,Fog,179
2013-12-6,31,28,24,21,9,1,87,47,36,30.19,30.16,30.12,10,10,10,15,5,22,0.00,6,,38
2013-12-7,30,20,11,10,4,-1,85,49,31,30.45,30.35,30.19,10,10,10,12,7,17,0.00,0,,41
2013-12-8,31,20,10,15,12,7,90,75,43,30.61,30.53,30.46,10,10,10,5,2,,0.00,3,,198
2013-12-9,32,23,14,27,22,12,93,80,64,30.61,30.54,30.49,10,10,9,5,2,,0.00,8,Snow,180
2013-12-10,38,33,28,35,31,27,100,94,81,30.52,30.47,30.41,10,9,4,4,1,,0.00,8,Rain-Snow,186
2013-12-11,37,30,24,37,29,25,100,99,93,30.41,30.30,30.19,10,2,0,6,1,,0.00,6,Fog,186
2013-12-12,39,32,24,39,33,24,100,99,78,30.18,30.11,30.04,10,7,2,10,2,,0.29,6,Rain,147
2013-12-13,50,44,37,48,42,37,100,99,87,30.44,30.30,30.14,10,7,0,13,4,,0.02,7,Fog-Rain,165
2013-12-14,47,41,35,47,39,36,100,99,90,30.47,30.40,30.36,10,4,0,10,3,,0.00,6,Fog,159
2013-12-15,53,48,44,50,46,44,100,98,88,30.48,30.39,30.34,10,9,2,16,5,21,0.04,8,Rain,193
2013-12-16,44,42,40,45,43,40,100,100,93,30.51,30.44,30.28,10,8,1,7,2,,0.00,8,,145
2013-12-17,46,42,37,46,40,37,100,98,87,30.28,30.19,30.12,10,6,1,12,4,,0.00,8,,177
2013-12-18,48,40,31,45,38,31,100,90,66,30.18,30.09,30.03,10,10,10,10,6,,0.00,7,Rain,177
2013-12-19,40,32,23,36,27,20,100,82,49,30.38,30.27,30.15,10,10,10,8,3,,0.00,3,,117
2013-12-20,46,38,30,46,37,28,100,99,90,30.20,29.90,29.71,10,8,2,23,5,30,0.37,8,Rain-Snow,196
2013-12-21,46,44,41,46,44,41,100,100,93,30.20,30.07,29.85,10,6,1,12,4,,0.14,8,Rain,211
2013-12-22,50,47,44,50,47,44,100,99,94,30.33,30.25,30.17,10,10,8,15,8,,0.02,8,Rain,188
2013-12-23,51,44,36,51,47,36,100,96,75,30.53,30.25,30.19,10,10,5,23,13,36,0.08,6,Rain,204
2013-12-24,45,40,35,41,39,35,100,94,79,30.64,30.59,30.52,10,10,0,8,3,,0.00,6,Fog,213
2013-12-25,41,34,28,41,34,28,100,99,93,30.53,30.47,30.40,10,3,0,6,1,,0.00,4,Fog,157
2013-12-26,42,34,27,42,32,28,100,99,85,30.42,30.33,30.22,10,2,0,6,2,,0.00,2,Fog,149
2013-12-27,46,36,26,46,38,27,100,100,93,30.40,30.23,30.14,10,7,0,15,3,,0.00,5,Fog-Rain,176
2013-12-28,46,39,32,45,38,32,100,99,87,30.54,30.48,30.38,10,5,0,6,2,,0.00,6,Fog,163
2013-12-29,43,38,32,43,38,32,100,99,90,30.50,30.40,30.32,10,6,0,6,2,,0.00,5,Fog,215
2013-12-30,46,40,33,42,38,34,100,99,76,30.32,30.24,30.16,10,3,0,8,2,,0.00,6,Fog-Rain,167
2013-12-31,46,43,40,46,43,39,100,98,81,30.39,30.31,30.20,10,7,0,8,4,,0.04,8,Fog-Rain,213